Regional Weather Roundup
Issued by NWS

Home | Current Version | Previous Version | Graphics & Text | Print | Product List | Glossary On
Versions: 1 2 3 4 5 6 7 8 9 10 11 12 13 14 15 16 17 18 19 20 21 22 23 24 25 26 27
000
ASUS45 KSLC 170910
RWRUT

UTAH REGIONAL WEATHER ROUNDUP
NATIONAL WEATHER SERVICE SALT LAKE CITY UT
300 AM MDT THU AUG 17 2017

UTZ001>011-023>025-171000-

NORTHERN UTAH

CITY           SKY/WX    TMP DP  RH WIND       PRES   REMARKS
BRIGHAM CITY   PTCLDY    66  42  41 CALM      30.07S
HILL AFB       PTCLDY    66  36  32 E14       30.09F
LOGAN          PTCLDY    57  48  72 CALM      30.08S
OGDEN          PTCLDY    65  38  36 S8        30.06F
SALT LAKE CITY PTCLDY    70  40  33 SE8       30.06R
TOOELE VALLEY  PTCLDY    61  37  41 SE9       30.07F
WENDOVER       CLEAR     69  44  40 SW3       30.05S
HEBER CITY     PTCLDY    50  41  71 CALM      30.18S
WEST JORDAN    PTCLDY    63  46  54 S6        30.09S

$$

UTZ011>015-024>027-171000-

CENTRAL/NORTHEAST UTAH

CITY           SKY/WX    TMP DP  RH WIND       PRES   REMARKS
PROVO AIRPORT  CLEAR     60  44  55 SE6       30.11
MOAB/CANYONLAN CLEAR     65  33  30 W3        30.07R
DELTA          CLEAR     59  37  44 CALM      30.11R
PRICE          PTCLDY    61  41  47 CALM      30.17F
ROOSEVELT      CLEAR     55  46  71 W5        30.17S
VERNAL         CLEAR     56  44  64 CALM      30.15S

$$

UTZ013>016-019>022-027-171000-

SOUTHERN UTAH

CITY           SKY/WX    TMP DP  RH WIND       PRES   REMARKS
BRYCE CANYON   CLEAR     45  37  73 W8        30.33R
CEDAR CITY     CLEAR     62  38  40 SE6       30.16S
MILFORD        PTCLDY    59  36  42 W6        30.13R
ST GEORGE      MOSUNNY   74  40  29 E5        29.99R
HANKSVILLE     CLEAR     63  32  31 CALM      30.10R
BLANDING       CLEAR     60  33  35 S6        30.24R

$$

REGIONAL REPORTS     COLORADO/ARIZONA

CITY           SKY/WX    TMP DP  RH WIND       PRES   REMARKS
CRAIG, CO      MOCLDY    50  42  74 CALM      30.22S
GRAND JUNCTION CLOUDY    65  39  38 E10       30.11S
RIFLE, CO      CLEAR     55  39  54 E3        30.19R
MONTROSE, CO   CLEAR     59  37  44 SE10      30.21R
CORTEZ, CO     CLEAR     46  35  65 E3        30.20S
COLORADO CITY    N/A     54  45  71 SE3       30.15S
PAGE, AZ       CLEAR     71  37  28 SW5       30.06
GRAND CANYON   MOCLDY    48  37  65 CALM      30.27F
KINGMAN, AZ    CLEAR     67  39  35 CALM      30.04R
FLAGSTAFF, AZ  CLEAR     48  40  73 CALM      30.30S

$$

REGIONAL REPORTS    NEVADA/IDAHO/WYOMING

CITY           SKY/WX    TMP DP  RH WIND       PRES   REMARKS
LAS VEGAS, NV  CLEAR     82  40  22 SW5       29.92S
ELY, NY        CLEAR     46  41  82 S9        30.24S
ELKO, NV       PTCLDY    57  39  51 W3        30.14R
POCATELLO, ID  CLEAR     67  36  31 S13       30.06S
BURLEY, ID     CLEAR     57  42  57 SW8       30.04F
FORT BRIDGER,    N/A     61  33  35 SW10      30.27F
EVANSTON, WY   CLOUDY    54  37  52 S8        30.26S
ROCK SPRINGS,  CLEAR     57  37  47 SW12      30.22R
KEMMERER, WY     N/A     52  36  54 N3        30.26S

$$




USA.gov is the U.S. government's official web portal to all federal, state and local government web resources and services.